STARLINK U

Last updated on Sun Jun 09 2024 00:02:05 GMT+0000 (Coordinated Universal Time)

1 59940U 24106U 24160.58335648 -.01046143 32980-3 -29585-2 0 9992 2 59940 43.0017 19.8027 0001632 264.1045 62.9522 15.92515772 2401

Satellite not in orbit